Weather observations for the past three days for
Amarillo, Amarillo International Airport
Imperial (Metric)
Date Time (cdt) Wind (mph) Vis. (mi.) Weather Sky Cond. Temperature (ºF) Relative Humidity Wind Chill (°F) Heat Index (°F) Pressure Precipitation (in)
Air Dwpt 6 hour altimeter (in) sea level (mb) 1 hr 3 hr 6 hr
Max. Min.
24 21:53 S 14 10.00 Fair CLR 86 54 33% 84 29.93 1006.7
24 20:53 S 14 10.00 Fair CLR 90 54 29% 88 29.92 1006.5
24 19:53 S 16 10.00 Fair CLR 93.9 57 29% 93 29.92 1006.6
24 18:53 S 18 G 25 10.00 Fair CLR 96.1 54 97 93.9 24% 94 29.91 1006.2
24 17:53 S 18 G 26 10.00 Fair CLR 96.1 54 24% 94 29.93 1006.7
24 16:53 S 20 G 29 10.00 Fair CLR 97 55.9 25% 95 29.95 1007.2
24 15:53 S 17 G 28 10.00 Fair CLR 96.1 55.9 26% 94 29.97 1008.1
24 14:53 S 16 G 26 10.00 Fair CLR 95 55.9 27% 93 29.99 1008.9
24 13:53 S 22 G 29 10.00 Fair and Breezy CLR 95 55.9 27% 93 30.01 1009.3
24 12:53 S 20 G 26 10.00 Fair CLR 93.9 54 93.9 73.9 26% 92 30.02 1009.9
24 11:53 SW 13 G 22 10.00 Fair CLR 91.9 55.9 30% 90 30.03 1010.4
24 10:53 SW 13 10.00 Fair CLR 89.1 57.9 35% 88 30.04 1010.8
24 09:53 SW 13 10.00 Fair CLR 84.9 55.9 37% 84 30.04 1011.1
24 08:53 SW 12 10.00 Fair CLR 79 57.9 49% 80 30.04 1010.8
24 07:53 S 10 10.00 Fair CLR 75.9 57 52% 78 30.03 1010.7
24 06:53 S 10 10.00 Fair CLR 75 57 81 75 54% 78 30.02 1010.3
24 05:53 S 9 10.00 Fair CLR 77 57 50% 79 30.02 1009.8
24 04:53 S 10 10.00 Fair CLR 78.1 57.9 50% 79 30.01 1009.4
24 03:53 SW 13 10.00 A Few Clouds FEW110 78.1 59 52% 79 30.02 1009.9
24 02:53 S 13 10.00 Fair CLR 79 60.1 52% 80 30.02 1010.0
24 01:53 S 13 10.00 Fair CLR 80.1 60.1 51% 81 30.03 1010.4
24 00:53 S 9 10.00 Fair CLR 80.1 61 93 79 52% 81 30.04 1010.6
23 23:53 SE 10 10.00 Fair CLR 80.1 61 52% 81 30.05 1011.1
23 22:53 E 8 10.00 A Few Clouds FEW085 80.1 62.1 54% 81 30.05 1011.2
23 21:53 E 12 G 21 10.00 Mostly Cloudy BKN090 82.9 60.1 46% 83 30.03 1010.4
23 20:53 S 9 10.00 Fair CLR 88 60.1 39% 88 30 1009.7
23 19:53 S 7 10.00 Fair CLR 91 59 34% 90 30 1009.4
23 18:53 S 13 10.00 Fair CLR 93 59 96.1 91 32% 92 29.99 1009.1
23 17:53 SW 10 10.00 Fair CLR 95 59 30% 94 30.01 1009.7
23 16:53 S 15 G 23 10.00 Fair CLR 95 62.1 34% 96 30.01 1010.0
23 15:53 S 7 10.00 Fair CLR 95 60.1 31% 95 30.03 1010.6
23 14:53 SW 9 10.00 Fair CLR 93.9 63 36% 95 30.06 1011.4
23 13:53 Vrbl 3 10.00 Fair CLR 91.9 62.1 37% 93 30.07 1012.1
23 12:53 W 10 10.00 Fair CLR 91.9 64 91.9 75 40% 94 30.09 1012.6
23 11:53 W 12 10.00 Fair CLR 89.1 64.9 45% 91 30.1 1013.0
23 10:53 SW 15 10.00 Fair CLR 87.1 63 45% 88 30.11 1013.1
23 09:53 W 16 10.00 Fair CLR 86 62.1 45% 87 30.1 1012.8
23 08:53 SW 14 10.00 Fair CLR 78.1 57.9 50% 79 30.09 1012.8
23 07:53 SW 12 10.00 Fair CLR 75.9 57.9 54% 78 30.08 1012.3
23 06:53 SW 12 10.00 Fair CLR 75.9 55.9 77 71.1 50% 78 30.07 1011.8
23 05:53 SW 10 10.00 Fair CLR 73 57.9 59% 30.06 1011.5
23 04:53 SW 9 10.00 Fair CLR 73 57.9 59% 30.05 1011.1
23 03:53 SW 12 10.00 Fair CLR 73 57.9 59% 30.05 1011.2
23 02:53 SW 10 10.00 Fair CLR 73 57 57% 30.06 1011.6
23 01:53 S 10 10.00 Fair CLR 75 57.9 55% 78 30.07 1011.9
23 00:53 S 10 10.00 Fair CLR 77 57.9 93 77 52% 79 30.07 1012.2
22 23:53 S 13 10.00 Fair CLR 80.1 57 45% 80 30.07 1012.1
22 22:53 S 8 10.00 Fair CLR 82 59 46% 82 30.06 1011.8
22 21:53 S 9 10.00 Fair CLR 84 60.1 44% 84 30.04 1010.8
22 20:53 S 10 10.00 Fair CLR 88 60.1 39% 88 30.02 1010.3
22 19:53 S 12 10.00 Fair CLR 90 59 35% 89 30.02 1010.4
22 18:53 S 14 10.00 Fair CLR 93 60.1 93.9 89.1 33% 93 30.02 1010.4
22 17:53 S 10 G 23 10.00 Fair CLR 93 61 34% 93 30.03 1010.8
22 16:53 S 15 10.00 Fair CLR 93.9 63 36% 95 30.05 1011.2
22 15:53 SW 8 G 22 10.00 A Few Clouds FEW070 93 62.1 36% 94 30.06 1011.6
22 14:53 SW 15 G 25 10.00 Fair CLR 91.9 62.1 37% 93 30.07 1012.1
22 13:53 SW 14 G 23 10.00 Fair CLR 90 62.1 39% 90 30.09 1012.7
22 12:53 SW 20 10.00 Fair CLR 89.1 62.1 89.1 70 41% 89 30.11 1013.4
22 11:53 SW 22 G 29 10.00 Fair and Breezy CLR 86 63 46% 87 30.11 1013.7
22 10:53 SW 22 G 33 10.00 Fair and Breezy CLR 84 62.1 48% 85 30.12 1013.8
22 09:53 SW 25 G 36 10.00 Fair and Breezy CLR 81 62.1 53% 82 30.12 1014.0
22 08:53 SW 20 G 31 10.00 Fair CLR 78.1 63 60% 80 30.12 1014.2
22 07:53 SW 10 10.00 Fair CLR 71.1 62.1 73% 30.12 1014.8
22 06:53 SW 12 10.00 Fair CLR 69.1 62.1 75.9 69.1 78% 30.12 1014.9
22 05:53 SW 10 10.00 Fair CLR 70 62.1 76% 30.12 1015.0
22 04:53 S 8 10.00 Fair CLR 71.1 62.1 73% 30.11 1014.4
22 03:53 SW 12 10.00 Fair CLR 72 62.1 71% 30.12 1014.6
22 02:53 SW 10 10.00 Fair CLR 73.9 63 69% 30.13 1014.8
22 01:53 S 15 10.00 Fair CLR 75 63 66% 77 30.13 1014.8
22 00:53 S 13 10.00 Fair CLR 75 63 80.1 75 66% 77 30.14 1014.9
21 23:53 S 14 10.00 Fair CLR 75.9 62.1 62% 78 30.13 1014.7
21 22:53 S 12 10.00 Fair CLR 77 63 62% 79 30.13 1014.8
Date Time (cdt) Wind (mph) Vis. (mi.) Weather Sky Cond. Air Dwpt Max. Min. Relative Humidity Wind Chill (°F) Heat Index (°F) altimeter (in) sea level (mb) 1 hr 3 hr 6 hr
6 hour
Temperature (ºF) Pressure Precipitation (in)